Location: Newark
(48.8656°N, 2.3211°E)
Time: 16:27:08
(UTC+00:00)

Envisat - Pass Details

Date: 21 February 2019
Orbit: 764 x 766 km, 98.1° (Epoch: 22 October)

Event Time Altitude Azimuth Distance (km) Brightness Sun altitude
Rises 19:54:28 0° 214° (SW) 3,221 6.5 -25.8°
Reaches altitude 10° 19:57:45 10° 237° (WSW) 2,301 6.0 -26.3°
Maximum altitude 20:00:41 15° 273° (W) 1,956 5.9 -26.8°
Drops below altitude 10° 20:03:39 10° 308° (NW) 2,311 6.3 -27.3°
Sets 20:06:58 0° 331° (NNW) 3,243 6.9 -27.8°
